Weather History for Big Piney, WY

Change the Weather History Date:

Sunday, December 9, 2012

  Actual Average Record
Temperature  
Mean Temperature 1 °F 13 °F  
Max Temperature 16 °F 27 °F 46 °F (2014)
Min Temperature -14 °F 0 °F -27 °F (2009)
Degree Days  
Heating Degree Days 64 52  
Month to date heating degree days 377 453  
Since 1 July heating degree days 2542 3268  
Cooling Degree Days 0 0  
Month to date cooling degree days 0 0  
Year to date cooling degree days 67 35  
Moisture  
Dew Point -7 °F    
Average Humidity 66    
Maximum Humidity 79    
Minimum Humidity 53    
Precipitation  
Precipitation 0.00 in 0.01 in 0.08 in (1992)
Month to date precipitation 0.04 0.08  
Year to date precipitation 2.69 6.26  
Sea Level Pressure  
Sea Level Pressure 30.38 in    
Wind  
Wind Speed 4 mph (NNE)    
Max Wind Speed 13 mph    
Max Gust Speed 17 mph    
Visibility 10 miles    
Events      
T = Trace of Precipitation, MM = Missing Value Source: NWS Daily Summary

Daily Weather History Graph

Daily Weather History Graph

Search for Another Location

Airport:

Trip Planner

Search our weather history database for the weather conditions in past years. The results will help you decide how hot, cold, wet, or windy it might be!

Date:

Astronomy

Dec. 09, 2012 Rise Set
Actual Time 7:39 AM MST 4:47 PM MST
Civil Twilight 7:07 AM MST 5:18 PM MST
Nautical Twilight 6:31 AM MST 5:54 PM MST
Astronomical Twilight 5:57 AM MST 6:28 PM MST
Moon 3:11 AM MST (12/9) 1:59 PM MST (12/9)
Length of Visible Light 10h 11m
Length of Day
9h 07m
Waning Crescent, 18% of the Moon is Illuminated
Dec 9
Waning Crescent
Dec 13
New
Dec 19
First Quarter
Dec 28
Full
Jan 4
Last Quarter

Hourly Weather History & Observations

Time (MST) Temp. Windchill Dew Point Humidity Pressure Visibility Wind Dir Wind Speed Gust Speed Precip Events Conditions
12:53 AM -9.0 °F -23.8 °F -16.1 °F 71% 30.23 in 10.0 mi NNW 6.9 mph - N/A   Scattered Clouds
1:53 AM -9.0 °F - -15.0 °F 75% 30.24 in 10.0 mi Calm Calm - N/A   Clear
2:53 AM -9.9 °F -19.2 °F -16.1 °F 74% 30.27 in 10.0 mi NE 3.5 mph - N/A   Clear
3:53 AM -9.0 °F -18.2 °F -14.1 °F 79% 30.27 in 10.0 mi East 3.5 mph - N/A   Clear
4:53 AM -11.9 °F -21.5 °F -18.0 °F 74% 30.38 in 10.0 mi NE 3.5 mph - N/A   Clear
5:53 AM -9.9 °F - -16.1 °F 74% 30.38 in 10.0 mi Calm Calm - N/A   Overcast
6:53 AM -11.9 °F - -16.1 °F 82% 30.42 in 10.0 mi Calm Calm - N/A   Partly Cloudy
7:53 AM -9.9 °F - -16.1 °F 74% 30.46 in 10.0 mi Calm Calm - N/A   Scattered Clouds
8:53 AM -2.9 °F - -9.0 °F 75% 30.48 in 10.0 mi Calm Calm - N/A   Clear
9:53 AM 1.0 °F -6.7 °F -6.0 °F 72% 30.48 in 10.0 mi ESE 3.5 mph - N/A   Partly Cloudy
10:53 AM 7.0 °F 0.1 °F -2.0 °F 67% 30.44 in 10.0 mi East 3.5 mph - N/A   Clear
11:53 AM 10.9 °F 1.4 °F -0.0 °F 61% 30.43 in 10.0 mi East 5.8 mph - N/A   Clear
12:53 PM 14.0 °F 8.2 °F 1.9 °F 59% 30.40 in 10.0 mi NNE 3.5 mph - N/A   Clear
1:53 PM 15.1 °F 7.7 °F 1.9 °F 56% 30.40 in 10.0 mi NE 4.6 mph - N/A   Clear
2:53 PM 15.1 °F - 1.9 °F 56% 30.40 in 10.0 mi Calm Calm - N/A   Clear
3:53 PM 14.0 °F 8.2 °F 1.0 °F 56% 30.41 in 10.0 mi NW 3.5 mph - N/A   Scattered Clouds
4:53 PM 10.9 °F 4.7 °F -0.0 °F 61% 30.44 in 10.0 mi NW 3.5 mph - N/A   Clear
5:53 PM -0.9 °F -12.7 °F -6.0 °F 79% 30.50 in 10.0 mi North 5.8 mph - N/A   Clear
6:53 PM 3.9 °F - -2.9 °F 73% 30.46 in 10.0 mi Calm Calm - N/A   Overcast
7:53 PM 1.9 °F - -4.0 °F 76% 30.45 in 10.0 mi Calm Calm - N/A   Mostly Cloudy
8:53 PM 3.9 °F -6.9 °F -4.0 °F 70% 30.37 in 10.0 mi WSW 5.8 mph - N/A   Scattered Clouds
9:53 PM 5.0 °F -10.8 °F -4.0 °F 66% 30.34 in 10.0 mi North 11.5 mph - N/A   Clear
10:53 PM 6.1 °F -2.8 °F -2.0 °F 69% 30.30 in 10.0 mi West 4.6 mph - N/A   Overcast
11:53 PM 12.9 °F -0.9 °F 1.0 °F 59% 30.24 in 10.0 mi NW 11.5 mph - N/A   Overcast